Regional Weather Roundup
Issued by NWS

Home | Current Version | Previous Version | Graphics & Text | Print | Product List | Glossary Off
Versions: 1 2 3 4 5 6 7 8 9 10 11 12 13 14 15 16 17 18 19 20 21 22 23 24 25 26 27 28 29 30 31 32 33 34 35 36 37 38 39 40 41 42 43 44 45 46 47 48 49 50

000
ASUS43 KTOP 171059
RWRKS

WEATHER ROUNDUP FOR KANSAS
NATIONAL WEATHER SERVICE GOODLAND KS
600 AM CDT WED SEP 17 2014

NOTE:  "FAIR" INDICATES FEW OR NO CLOUDS BELOW 12,000 FEET WITH NO
SIGNIFICANT WEATHER AND/OR OBSTRUCTIONS TO VISIBILITY.

KSZ001>006-013>018-027>032-041>047-171200-
NORTHWEST KANSAS

CITY           SKY/WX    TMP DP  RH WIND       PRES   REMARKS
GOODLAND       CLEAR     55  49  80 W5        29.98S
HAYS           CLEAR     59  55  88 SW3       29.90S
HILL CITY      FOG       55  54  96 N7        29.92R VSB 1/4
RUSSELL        CLEAR     63  61  93 SW9       29.88S
$$

KSZ061>065-074>080-084>089-171200-
SOUTHWEST KANSAS

CITY           SKY/WX    TMP DP  RH WIND       PRES   REMARKS
DODGE CITY     CLEAR     63  60  90 SW12      29.94S
ELKHART          N/A     62  57  83 SW8         N/A
GARDEN CITY    CLEAR     58  57  97 SW6       29.94S
GREAT BEND     CLEAR     64  61  88 S7        29.90S
LIBERAL        MOCLDY    63  57  82 SW8       29.98S
PRATT          CLEAR     63  61  94 S8        29.93F FOG
$$

KSZ066>073-081>083-090>101-171200-
SOUTHEAST KANSAS

CITY           SKY/WX    TMP DP  RH WIND       PRES   REMARKS
CHANUTE        CLOUDY    69  68  96 SW9       29.90F FOG
COFFEYVILLE    CLOUDY    69  68  96 S13       29.91F FOG
HUTCHINSON     CLOUDY    68  65  90 S9        29.90F FOG
NEWTON         CLOUDY    66  61  82 SW10      29.93F
PARSONS        CLOUDY    69  68  96 S10       29.92F FOG
WICHITA INTL   MOCLDY    66  64  93 S7        29.92F FOG
WICHITA JABRA  CLEAR     67  65  93 S10       29.91F FOG
WINFIELD       CLEAR     68  67  96 S6        29.94S FOG
$$

KSZ007>012-019>026-033>040-048>060-102>105-171200-
NORTHEAST KANSAS

CITY           SKY/WX    TMP DP  RH WIND       PRES   REMARKS
CONCORDIA      CLOUDY    65  65 100 W5        29.90R FOG
EMPORIA        PTCLDY    64  64 100 SW3       29.89F FOG
LAWRENCE       CLOUDY    63  62  97 E3        29.91F FOG
MANHATTAN      CLOUDY    69  67  93 SW7       29.88F FOG
OLATHE IND     CLOUDY    67  66  97 CALM      29.92R
OLATHE EXE     CLOUDY    64  64 100 S5        29.91R THUNDER
SALINA         PTCLDY    67  65  93 S5        29.89S FOG
TOPEKA BILLARD CLOUDY    65  64  97 E6        29.90F
TOPEKA FORBES  CLOUDY    63  61  93 E7        29.90S
$$



USA.gov is the U.S. government's official web portal to all federal, state and local government web resources and services.